Location: Croisilles
(50.1998°N, 2.8793°E)
Time: 21:08:00
(UTC+00:00)

Cosmos 1833 Rocket - Pass Details

Date: 21 January 2021
Orbit: 833 x 839 km, 71.0° (Epoch: 02 March)

Event Time Altitude Azimuth Distance (km) Brightness Sun altitude
Rises 19:13:37 0° 331° (NNW) 3,392 6.2 -26.7°
Reaches altitude 10° 19:16:04 10° 333° (NNW) 2,455 5.4 -27.1°
Enters shadow 19:21:01 67° 360° (N) 906 2.7 -27.9°
